Location: Luz Observatory
(34.5000°N, 117.2833°W)
Time: 22:32:59
(UTC-07:00)

HST - Visible Passes

Search period start: 17 April 2014 00:00
Search period end: 27 April 2014 00:00
Orbit: 548 x 553 km, 28.5° (Epoch: 17 April)

Date Brightness Start Highest point End Pass type
(mag) Time Alt. Az. Time Alt. Az. Time Alt. Az.
17 Apr 2.2 19:52:52 10° SW 19:56:15 24° SSE 19:59:35 10° ESE visible
17 Apr 2.7 21:33:29 10° WSW 21:35:12 21° SW 21:35:12 21° SW visible
18 Apr 2.0 19:46:08 10° SW 19:49:43 28° SSE 19:53:19 10° ESE visible
18 Apr 2.3 21:26:58 10° WSW 21:29:17 26° SW 21:29:17 26° SW visible
19 Apr 2.1 21:20:29 10° WSW 21:23:17 30° SW 21:23:17 30° SW visible
20 Apr 1.9 21:14:02 10° WSW 21:17:13 31° SSW 21:17:13 31° SSW visible
21 Apr 1.9 21:07:36 10° WSW 21:11:07 29° SSW 21:11:07 29° SSW visible
22 Apr 2.1 21:01:12 10° WSW 21:04:41 26° SSW 21:05:00 25° S visible
23 Apr 2.3 20:54:51 10° WSW 20:58:07 22° SSW 20:58:51 21° S visible
24 Apr 2.6 20:48:36 10° WSW 20:51:31 18° SSW 20:52:43 16° S visible
25 Apr 2.9 20:42:31 10° SW 20:44:54 15° SSW 20:46:35 12° S visible
26 Apr 3.2 20:36:50 10° SW 20:38:16 12° SSW 20:39:41 10° S visible
